Presure
153 130 139 160 130 142 140 134 152 157 168 181 152 158 153 176 158 162 137 192 166 155 135 184 169 172 162 167 186 150 181 167 196 211 213 198 193 166 188 185 177 189 192 189 189 188 187 180 189
107 91 117 126 149 126 149 126 153 148 165 186 160 153 161 149 154 165 161 165 184 149 137 152 158 183 190 202 146 148 194 182 163 115 210 208 200 183 186 181 184 177 182 196 188 187 173 188 189
125 141 119 147 140 141 152 114 176 156 125 167 164 179 178 173 173 164 158 142 175 139 177 151 146 180 164 160 196 201 171 155 174 194 207 205 188 196 177 189 185 198 196 193 184 178 185 183 182
131 149 111 123 158 115 161 162 111 166 148 153 125 133 158 170 173 143 177 134 184 156 148 138 155 150 179 140 140 171 186 168 92 141 142 202 205 193 187 195 195 199 179 183 181 190 182 187 180
152 163 153 115 159 149 146 150 157 186 152 157 180 183 149 131 166 168 143 147 145 185 178 161 141 147 168 172 194 188 192 142 171 181 194 204 200 193 192 221 202 183 180 195 172 179 173 178 171
161 143 157 147 158 102 159 158 148 124 136 129 168 163 170 147 181 137 158 172 167 168 179 193 163 129 188 190 167 191 133 189 204 199 176 201 201 198 192 184 178 179 178 157 177 177 180 178 184
117 156 149 154 124 108 164 123 109 153 132 181 134 166 184 163 157 167 146 170 161 144 143 138 179 160 176 150 151 185 208 152 194 194 201 204 189 196 197 196 191 190 197 181 180 175 170 175 179
151 147 135 108 161 151 118 164 163 161 137 123 173 168 161 175 133 153 166 159 180 187 170 188 181 189 132 180 169 152 212 203 180 202 208 201 205 184 202 191 186 187 186 185 183 176 173 172 180
133 164 161 163 163 167 176 159 158 162 111 139 146 127 159 133 159 152 157 167 164 168 178 127 163 189 180 181 194 181 212 201 173 202 205 200 201 195 182 193 186 190 181 184 178 177 176 168 172
136 156 145 138 142 166 147 112 148 155 158 160 150 174 147 170 155 163 177 149 177 143 164 184 155 164 153 194 192 180 210 184 180 167 203 193 190 192 191 193 184 187 189 173 178 176 176 175 184
119 157 177 150 154 144 165 136 150 135 155 150 125 157 155 161 143 162 157 144 181 150 183 178 165 192 184 181 180 197 200 202 196 193 207 191 197 190 185 188 181 185 178 172 176 173 175 172 173
143 154 147 166 113 111 158 124 157 157 134 158 174 163 163 170 155 176 175 173 172 177 170 178 184 142 179 196 179 182 185 203 192 189 190 181 192 196 190 185 183 188 190 186 182 173 167 178 176
140 162 156 150 147 150 149 155 138 157 143 163 147 151 161 157 166 162 164 180 152 170 187 151 191 159 176 194 197 201 204 204 181 185 195 185 168 184 186 189 183 182 182 163 163 174 181 193 188
155 145 145 159 159 122 151 169 153 159 163 149 154 151 159 164 165 151 156 188 181 180 185 195 200 171 202 195 197 211 180 213 199 193 143 184 174 159 181 187 183 166 180 183 170 169 177 186 179
153 166 162 165 159 152 182 124 171 162 160 170 157 161 164 176 166 171 191 163 157 176 172 199 175 155 192 199 187 179 170 180 135 200 180 180 172 187 189 185 175 171 174 171 170 170 173 171 175
123 134 153 149 153 126 174 169 157 157 169 169 171 169 175 160 169 168 177 174 180 181 193 183 187 188 174 190 184 174 177 188 204 163 205 196 181 184 169 172 164 173 179 181 184 181 177 154 156
165 162 174 159 156 160 160 157 149 170 173 172 169 174 172 169 170 173 163 178 178 180 181 198 193 166 183 164 171 178 176 172 174 187 182 174 173 185 189 176 183 169 173 180 175 167 178 181 181
159 160 157 169 171 167 161 162 160 169 153 181 173 175 158 161 186 168 183 178 186 171 179 190 178 167 164 182 193 177 177 165 180 192 179 171 166 187 189 187 180 175 177 173 178 180 186 178 174
164 176 169 158 152 145 165 164 164 158 178 145 174 172 170 135 180 157 178 175 169 172 184 174 169 169 189 154 165 186 172 186 181 182 187 166 184 181 175 161 190 189 183 183 171 177 178 183 178
172 159 180 176 171 165 173 149 175 177 180 172 177 165 183 184 169 183 169 176 182 173 164 164 156 154 166 177 186 176 181 182 181 179 188 184 181 183 142 174 163 155 172 163 180 179 181 182 183
173 183 159 185 176 173 178 178 170 184 169 160 174 173 181 188 176 173 175 165 169 159 175 170 167 165 195 182 153 163 147 174 171 189 172 164 181 183 172 177 181 174 174 183 181 175 178 180 178
168 177 186 178 184 185 192 175 171 158 172 174 168 183 153 173 178 170 150 142 166 162 151 155 165 152 174 153 177 157 158 155 146 162 180 175 180 173 174 173 172 178 181 180 181 174 179 174 181
171 172 168 176 193 162 181 191 129 173 171 177 166 172 186 180 172 175 172 164 169 174 175 171 166 163 161 177 180 183 177 175 160 154 179 145 174 169 174 173 173 179 182 184 177 176 181 180 172
183 185 192 177 187 180 154 165 146 171 137 143 113 80 112 178 146 180 142 155 101 129 152 182 167 187 143 179 157 176 134 185 154 176 177 170 180 181 172 175 183 184 183 177 175 175 185 192 190
184 169 179 180 190 192 183 173 171 84 181 184 136 118 117 171 134 146 178 148 152 188 164 164 192 200 193 186 150 184 184 174 167 186 181 172 184 183 179 183 177 165 162 192 178 180 191 194 199
177 181 178 182 184 200 192 180 177 169 164 167 78 170 169 213 194 206 199 205 155 180 178 143 186 180 187 188 192 200 195 188 192 196 195 156 154 194 192 184 191 191 191 184 191 191 196 189 196
189 197 190 185 206 191 192 182 124 181 203 217 177 220 202 197 215 157 191 197 155 199 190 180 190 194 195 195 203 188 201 189 185 201 200 177 178 167 204 204 203 195 196 187 192 191 195 192 208
209 214 224 193 237 243 217 225 226 234 236 240 229 174 214 216 214 211 209 213 207 197 191 195 149 193 198 200 195 196 183 188 190 192 200 200 200 199 204 203 217 211 202 222 206 185 195 220 232
228 217 219 244 213 200 201 205 224 178 220 221 222 208 221 105 213 218 217 213 116 176 203 206 201 200 196 200 197 198 194 184 205 194 199 204 199 206 205 207 197 212 218 220 225 224 222 191 185
189 202 230 218 216 216 211 220 217 207 209 216 224 178 218 199 196 213 216 200 137 213 207 207 212 203 194 195 204 195 191 201 193 190 197 209 208 211 203 198 194 205 200 192 211 222 217 236 215
Wind_Speed
41 41 44 40 47 50 49 47 38 32 32 35 40 31 43 33 41 38 56 32 39 55 51 41 45 41 56 51 38 58 41 53 42 45 46 48 46 43 46 49 51 48 46 47 47 46 47 49 46
42 37 42 40 46 50 45 51 40 39 36 39 31 41 32 47 42 38 39 37 37 51 56 61 44 42 42 38 44 54 38 40 49 34 44 42 46 49 50 51 50 51 49 45 47 46 48 46 46
47 50 44 50 36 44 44 46 46 38 46 30 32 36 37 38 35 40 42 61 32 45 39 57 60 45 57 63 41 39 50 54 50 45 42 42 41 45 49 49 48 47 46 42 45 48 47 47 46
53 55 48 49 48 49 42 43 48 47 45 35 52 59 45 43 38 64 39 53 47 55 64 61 65 67 47 54 51 54 38 55 25 47 49 40 40 45 46 47 46 42 46 44 44 41 46 45 46
55 55 54 51 50 50 52 47 42 54 46 44 46 50 52 62 37 39 57 67 58 53 47 59 60 53 48 46 48 48 45 50 48 45 43 39 39 40 40 36 40 42 43 38 44 45 46 46 48
59 57 56 53 54 52 55 52 51 54 51 55 52 51 46 49 50 54 50 47 50 53 50 51 58 53 47 47 58 47 47 45 42 44 43 40 38 39 40 43 44 44 43 38 47 47 45 47 50
56 58 55 56 56 50 62 51 50 55 54 63 56 48 64 39 47 51 59 60 48 63 65 67 54 61 49 73 69 47 45 40 42 47 44 41 40 38 39 39 40 41 39 42 44 46 45 48 48
55 54 57 54 62 51 66 63 64 61 56 56 65 56 55 60 62 45 56 53 66 64 55 58 51 54 56 48 49 72 44 42 50 45 42 41 39 40 37 37 39 39 40 43 45 46 45 48 48
57 68 63 62 65 65 64 66 62 64 59 68 56 58 67 59 67 47 61 63 56 57 64 60 56 56 49 54 47 48 43 42 53 42 40 39 35 38 38 35 39 39 41 41 44 44 46 48 48
63 67 58 68 58 65 60 57 62 67 70 72 66 76 65 72 48 65 76 59 74 63 65 66 63 62 64 54 48 49 43 48 47 52 40 39 40 38 38 36 40 40 40 42 43 45 44 48 50
66 70 80 64 63 60 72 65 68 63 71 69 65 71 74 72 73 69 57 65 77 68 71 64 59 61 53 55 52 42 42 40 39 39 37 38 38 39 38 39 41 42 44 44 46 47 47 48 47
67 75 68 80 61 55 72 73 72 73 77 77 83 79 82 86 72 86 82 78 76 76 62 72 68 72 55 56 56 47 40 39 40 39 39 42 37 35 37 40 42 41 42 43 44 49 48 51 50
69 84 78 72 71 74 63 70 65 79 76 81 71 73 84 76 84 73 79 82 73 73 79 64 68 54 58 54 51 44 38 39 45 44 37 39 49 40 39 39 42 43 44 47 46 51 51 47 45
74 81 77 85 84 68 75 90 71 82 86 69 78 74 83 85 86 72 73 84 77 80 73 74 68 57 57 55 49 43 37 37 39 41 53 41 45 47 40 38 41 47 45 45 48 52 50 47 51
85 91 91 96 83 69 99 71 91 84 83 93 82 89 81 91 88 88 86 71 68 78 69 72 60 66 55 51 52 44 50 37 50 40 43 42 45 38 38 39 39 44 45 49 52 54 53 56 56
86 80 81 76 72 81 94 87 77 80 98 89 99 92 97 82 86 81 90 80 81 79 73 70 63 57 51 53 55 50 39 39 34 61 32 37 41 40 47 46 56 47 45 46 48 50 54 59 57
104 95 94 94 79 87 85 83 71 104 100 97 100 100 100 97 95 95 79 87 83 76 69 71 67 64 48 51 55 58 49 45 37 35 36 40 41 39 40 45 44 53 52 49 51 61 54 56 57
100 102 96 108 109 100 93 95 95 99 79 101 100 99 79 85 98 84 94 92 89 71 77 80 61 57 53 75 65 60 57 53 50 49 41 46 57 43 41 44 48 50 50 54 53 54 56 60 62
109 116 116 99 85 79 104 104 101 90 107 87 102 97 87 86 95 75 94 87 79 80 86 70 64 67 79 68 59 70 65 61 57 54 55 58 51 49 50 60 52 53 53 55 62 59 62 64 66
113 101 118 119 112 106 113 77 111 109 100 100 96 93 94 94 87 93 88 94 95 84 72 72 72 75 70 76 71 68 67 68 63 63 61 61 61 58 68 59 63 70 62 69 63 64 66 69 71
108 115 97 115 115 107 116 111 109 101 103 88 98 94 98 98 93 88 92 84 90 79 95 86 81 78 73 82 65 71 62 79 73 63 68 65 65 65 67 67 68 69 69 69 70 70 72 73 74
103 115 116 111 111 110 112 104 108 100 108 104 87 101 92 97 101 92 81 79 90 85 84 82 85 77 89 77 85 77 76 75 66 77 74 77 72 74 74 74 73 76 75 75 77 77 77 76 80
111 107 103 107 115 95 107 110 104 115 112 100 92 99 108 104 97 103 96 87 97 104 103 98 91 87 85 96 90 87 88 88 79 60 79 52 79 78 80 80 81 83 83 82 82 82 84 84 80
115 113 116 108 114 106 87 92 93 120 68 73 64 13 41 110 73 107 73 88 41 64 88 105 96 100 63 97 83 89 50 77 75 72 81 82 81 81 77 87 84 84 86 87 88 86 92 93 94
119 103 112 111 121 118 120 98 101 23 113 109 73 60 54 97 83 86 110 89 92 99 101 92 97 83 85 88 70 88 84 86 72 81 84 86 85 86 87 86 84 79 83 90 90 92 93 96 98
114 122 116 121 121 124 123 110 119 109 98 99 34 97 95 101 109 96 90 95 97 100 98 74 99 105 97 94 89 82 81 77 81 79 81 66 66 88 86 90 88 90 93 94 96 95 95 95 99
127 129 129 126 129 125 124 115 82 122 116 107 108 102 104 104 95 99 98 95 81 92 98 109 101 99 96 94 90 90 86 83 86 81 82 91 78 90 87 87 90 92 94 97 96 95 97 87 99
127 127 122 93 116 107 104 104 102 107 106 95 90 74 99 96 95 93 93 93 95 97 99 100 71 101 99 97 97 93 95 90 91 89 90 90 89 91 90 91 91 95 96 95 98 93 98 94 94
118 121 118 104 109 105 102 98 104 79 102 94 96 94 101 32 95 97 96 94 41 74 98 98 100 100 102 102 99 101 99 93 97 93 96 94 94 93 93 95 91 93 98 96 92 95 90 92 78
104 110 116 112 115 117 110 109 106 99 96 102 110 83 104 90 94 103 98 91 63 100 100 100 101 102 103 105 105 101 100 101 98 96 99 101 97 95 95 99 100 94 97 93 93 92 88 92 92
Wind_Direction
276 288 286 286 294 295 290 293 290 297 314 316 293 300 295 308 292 294 295 322 287 287 301 324 297 301 294 294 301 298 294 301 296 287 282 279 279 283 276 276 277 277 279 279 280 282 282 282 286
284 284 287 285 282 291 285 285 287 298 306 318 297 294 287 289 290 293 279 291 320 287 297 293 298 313 318 316 297 304 302 293 301 295 284 280 273 275 275 275 277 281 280 281 281 283 277 286 286
285 284 275 286 286 291 274 281 311 285 294 307 303 306 308 303 295 314 284 297 294 297 294 291 297 313 297 295 315 310 302 303 297 297 288 279 278 270 275 275 280 279 280 278 279 279 285 285 284
284 280 271 286 281 279 289 294 281 309 277 282 294 293 294 309 293 290 325 292 321 298 294 297 290 296 318 302 302 299 302 298 300 303 302 284 277 273 276 277 277 276 278 281 280 285 283 290 288
276 281 281 279 287 283 290 277 286 307 283 284 305 315 278 292 298 305 301 292 292 324 308 293 294 300 306 317 315 306 303 308 300 292 292 287 281 277 276 278 272 276 280 281 279 282 280 286 282
279 282 284 284 290 281 292 291 276 287 277 288 308 299 315 310 318 283 297 314 304 314 318 319 300 299 319 319 303 313 299 297 292 288 298 289 285 281 275 276 278 278 278 277 282 282 285 288 292
280 282 282 286 286 289 297 288 283 290 286 311 292 307 319 303 297 315 284 312 296 287 289 293 313 297 306 294 296 311 304 287 294 293 289 287 283 285 281 276 275 275 271 279 276 283 286 288 291
280 281 281 278 290 287 287 300 299 297 291 291 313 314 292 311 296 280 314 303 318 319 312 318 316 320 302 311 308 295 303 295 296 290 290 287 284 279 279 276 274 273 274 274 275 281 283 285 289
278 285 287 290 291 296 299 295 295 303 283 288 298 288 306 299 303 284 305 314 309 310 317 297 298 316 312 303 313 305 302 292 295 288 285 285 286 280 277 277 274 270 273 274 279 281 280 282 285
283 286 282 279 282 291 286 283 291 302 308 304 292 305 295 307 288 304 314 289 311 299 310 316 305 308 297 317 311 301 299 297 291 298 282 278 278 281 279 275 274 273 268 277 278 278 278 279 282
281 288 288 282 283 276 295 279 294 289 300 294 298 303 303 307 293 300 294 283 309 288 312 315 305 317 314 311 306 315 305 293 284 281 278 275 280 277 278 275 277 274 274 276 272 275 275 276 278
276 281 279 286 286 284 289 288 293 295 291 299 300 306 309 307 304 308 309 310 306 307 309 313 312 296 312 310 301 307 307 291 285 277 279 279 277 280 280 275 274 272 272 273 271 275 279 276 277
273 281 283 282 280 283 287 293 280 296 294 298 294 301 303 306 306 308 298 306 295 306 308 302 309 299 306 308 308 309 300 285 289 278 273 269 291 274 272 273 274 274 271 285 284 278 277 280 276
278 281 280 284 284 283 285 293 293 292 295 294 297 297 299 300 302 297 298 301 303 307 303 305 307 308 309 306 307 305 307 291 276 270 300 269 276 290 272 266 267 281 274 275 282 282 278 278 276
281 282 284 284 286 286 285 286 291 293 296 300 297 300 295 295 298 301 297 300 293 308 306 305 303 295 308 306 306 300 292 307 286 271 273 271 277 268 264 262 268 271 269 273 275 277 277 280 277
277 269 282 282 281 285 288 291 290 294 297 295 296 295 295 296 297 299 299 301 299 306 308 306 307 308 305 310 304 296 293 310 293 294 274 268 272 269 276 271 282 269 273 277 279 279 281 288 286
281 283 281 285 283 288 288 293 283 295 296 295 295 292 292 294 295 296 297 299 301 307 307 311 309 297 314 294 298 301 294 290 290 301 292 274 274 280 280 275 278 272 273 277 275 278 279 282 282
280 282 284 282 283 284 289 290 291 291 291 290 290 291 288 293 292 295 296 299 303 300 305 310 305 295 290 313 307 299 302 284 298 305 286 276 283 289 285 282 277 273 277 274 278 283 288 281 277
278 275 277 277 281 273 286 288 289 291 291 272 292 292 290 281 292 288 297 301 298 301 304 303 297 300 309 282 288 307 292 308 302 301 305 270 299 296 285 274 292 291 287 286 284 278 282 287 282
273 277 275 277 279 278 281 282 286 286 285 291 289 289 285 293 295 296 294 299 301 301 289 290 280 281 291 305 304 299 302 305 303 301 303 301 298 296 289 289 281 281 286 285 286 286 289 290 290
273 273 276 274 278 281 282 284 285 283 286 285 289 289 294 292 291 293 296 292 296 287 300 299 294 291 296 301 295 296 286 302 298 298 294 287 293 294 290 294 293 292 293 291 289 289 288 288 289
275 276 275 276 275 279 277 281 284 283 286 285 290 293 283 292 291 291 279 292 294 289 285 281 292 288 297 284 295 288 290 288 289 293 295 294 293 293 292 291 292 290 288 288 288 288 288 288 289
272 276 276 278 276 275 283 280 273 280 282 289 286 288 286 288 288 288 289 289 290 291 292 291 292 288 287 293 290 289 292 293 292 287 289 280 291 291 289 290 290 289 287 287 288 289 287 288 287
274 275 274 276 278 279 269 277 282 280 283 282 282 245 282 287 286 289 286 278 282 286 286 289 286 287 287 287 289 288 274 284 290 283 285 289 284 282 286 287 284 282 284 287 288 289 289 288 289
272 273 276 277 277 277 276 278 278 267 280 282 282 282 284 286 285 283 284 278 279 283 284 286 285 283 283 283 286 283 283 284 282 279 282 286 281 280 282 281 284 287 291 282 287 289 288 287 286
273 275 277 277 276 272 276 277 277 276 277 276 269 280 280 277 276 277 280 281 281 280 279 288 280 281 280 281 280 279 279 277 278 276 277 285 283 276 277 280 279 278 278 284 282 285 284 289 286
271 271 270 275 271 273 273 276 276 276 274 272 277 282 278 274 281 274 275 277 284 279 277 276 279 279 281 279 281 274 280 275 275 281 280 282 283 290 278 278 276 276 276 281 281 284 285 283 282
271 273 274 268 279 280 276 281 282 280 282 284 283 278 277 281 280 279 280 279 279 277 276 278 276 279 281 281 282 282 280 281 281 282 282 281 282 282 280 280 280 275 277 279 278 288 284 283 282
272 274 276 272 276 275 276 277 282 281 281 283 284 275 283 272 280 281 280 277 276 272 273 274 275 276 278 278 278 278 279 281 281 282 281 280 282 281 282 281 281 281 281 280 281 283 281 286 290
270 272 275 275 278 278 280 281 282 279 279 285 282 279 280 275 276 280 276 272 284 272 270 269 269 267 269 271 271 273 277 275 280 282 282 280 279 280 281 281 283 282 281 285 284 285 286 295 284